{"data":{"norad_id":54200,"epoch":"2026-09-20T04:14:01.529376Z","epoch_age_seconds":117217,"freshness":"FRESH","line1":"1 54200U 22141AV  26263.17640659  .00000752  00000+0  32466-4 0  9996","line2":"2 54200  53.1607 189.5111 0001129  71.6846 288.4280 15.35404130215518","mean_motion":15.3540413,"eccentricity":0.0001129,"inclination_deg":53.1607,"raan_deg":189.5111,"arg_perigee_deg":71.6846,"mean_anomaly_deg":288.428,"bstar":3.2466e-5,"rev_number":21551,"period_min":93.786383132889,"perigee_km":458.94838676171,"apogee_km":460.49237495831,"semimajor_km":6837.85738086,"source":"CELESTRAK","updated_at":"2026-09-21T09:00:33.116766Z"}}